Content
SEND FEEDBACK

Daily
Averages
Monthly
Summary
United States of America

BELLEVILLE, MICHIGAN


Home > North America > United States > Michigan
Elevation: 780 feet     Latitude: 42 14N     Longitude: 083 32W

WEATHER
 
SELECT A DAY
Number of Records: 202,692;   Date Range: 1/1/95 - 8/12/14
 
SHARE

PRINT THIS DATA

[ ← Previous Day ]
WEATHER ALMANAC - NOVEMBER 16, 2013
[ Next Day → ]
[ °C ]   °F
Weather ElementAverageHighLow
Temperature48.5 °F60.1 °F (3:53 pm)35.1 °F (5:53 am)
Dewpoint40.5 °F51.1 °F (10:53 pm)28.9 °F (1:53 am)
Humidity74 %87 % (8:04 am)64 % (2:53 pm)
Barometer30.01 in30.11 in (4:53 am)29.82 in (10:53 pm)
Wind Speed8.8 mph19.6 mph (10:53 pm)
Wind Gust25.3 mph (9:53 pm)
Weather ElementAverage
Visibility8.8 mi
Wind DirectionSSE (144.1 °)

Weather ElementTotal
Precipitation---
Heating Degree Days17.4 (Base 65)
Averaged from 27 records on November 16, 2013
WEATHER CONDITIONS BREAKOUT
WIND DIRECTION BREAKOUT
WEATHER BY HOUR - NOVEMBER 16, 2013
[ °C ]   °F
Local TimeTemperatureDewpointHumidityBarometerVisibilityWind DirectionWind SpeedGust SpeedPrecipitationEventsConditions
1:53 AM39.9 °F28.9 °F65 %30.08 in10.0 miSouth (190°)8.1 mphClear
2:53 AM39.9 °F30.0 °F68 %30.09 in10.0 miSSW (200°)5.8 mphClear
3:53 AM37.0 °F28.9 °F73 %30.08 in10.0 miSSE (160°)8.1 mphClear
4:53 AM36.0 °F30.0 °F79 %30.11 in10.0 miSSW (200°)4.6 mphClear
5:53 AM35.1 °F28.9 °F78 %30.10 in9.0 miSSE (150°)4.6 mphClear
6:53 AM35.1 °F30.0 °F82 %30.11 in7.0 miESE (110°)3.5 mphScattered Clouds
7:03 AM35.6 °F30.2 °F81 %30.10 in7.0 miCalmMostly Cloudy
7:53 AM39.9 °F35.1 °F83 %30.11 in4.0 miCalmHaze
8:04 AM39.2 °F35.6 °F87 %30.10 in4.0 miCalmHaze
8:53 AM43.0 °F36.0 °F76 %30.11 in6.0 miCalmHaze
9:42 AM44.6 °F37.4 °F76 %30.10 in7.0 miSSE (160°)5.8 mphOvercast
9:53 AM46.0 °F39.0 °F76 %30.09 in8.0 miSSE (150°)5.8 mphOvercast
10:03 AM46.4 °F39.2 °F76 %30.08 in8.0 miSSE (150°)6.9 mphOvercast
10:53 AM50.0 °F42.1 °F74 %30.08 in9.0 miSouth (170°)12.7 mphOvercast
11:53 AM51.1 °F44.1 °F77 %30.06 in9.0 miSouth (180°)10.4 mphOvercast
12:53 PM53.1 °F45.0 °F74 %30.01 in10.0 miSSE (160°)11.5 mphMostly Cloudy
1:53 PM55.9 °F46.0 °F69 %29.98 in10.0 miSSE (160°)11.5 mphClear
2:53 PM59.0 °F46.9 °F64 %29.95 in10.0 miSouth (170°)10.4 mphScattered Clouds
3:53 PM60.1 °F48.0 °F64 %29.94 in10.0 miSSE (150°)10.4 mphMostly Cloudy
4:53 PM59.0 °F46.9 °F64 %29.93 in10.0 miSouth (170°)11.5 mphMostly Cloudy
5:53 PM55.9 °F46.9 °F72 %29.94 in10.0 miSouth (180°)13.8 mphMostly Cloudy
6:53 PM55.9 °F48.0 °F75 %29.93 in10.0 miSouth (180°)15.0 mphOvercast
7:53 PM57.0 °F48.9 °F74 %29.90 in10.0 miSouth (180°)12.7 mphOvercast
8:53 PM57.9 °F48.9 °F72 %29.88 in10.0 miSouth (180°)15.0 mph21.9 mphOvercast
9:53 PM59.0 °F50.0 °F72 %29.85 in10.0 miSouth (180°)17.3 mph25.3 mphOvercast
10:53 PM60.1 °F51.1 °F72 %29.82 in10.0 miSouth (180°)19.6 mph25.3 mph0.00 inRainLight Rain
11:53 PM59.0 °F51.1 °F75 %29.82 in9.0 miSouth (180°)13.8 mph0.00 inRainLight Rain
Hourly data recorded from KYIP, located miles away from Belleville, Michigan







STORIES FROM OUR PARTNERS